Change the Weather History Date:

Thursday, September 11, 2014

  Actual Average Record
Temperature  
Mean Temperature 82 °F 77 °F  
Max Temperature 93 °F 87 °F 98 °F (2007)
Min Temperature 70 °F 68 °F 60 °F (1999)
Degree Days  
Heating Degree Days 0 0  
Month to date heating degree days 0 0  
Since 1 July heating degree days 0 0  
Cooling Degree Days 17 12  
Month to date cooling degree days 184 147  
Year to date cooling degree days 2111 1965  
Growing Degree Days 32 (Base 50)    
Moisture  
Dew Point 70 °F    
Average Humidity 73    
Maximum Humidity 93    
Minimum Humidity 44    
Precipitation  
Precipitation 0.00 in 0.13 in 0.01 in (2008)
Month to date precipitation 2.91 1.54  
Year to date precipitation 32.57 33.39  
Sea Level Pressure  
Sea Level Pressure 30.02 in    
Wind  
Wind Speed 2 mph (WNW)    
Max Wind Speed 12 mph    
Max Gust Speed 15 mph    
Visibility 9 miles    
Events      
T = Trace of Precipitation, MM = Missing Value Source: NWS Daily Summary

Daily Weather History Graph

Daily Weather History Graph

Search for Another Location

Airport or City:

Trip Planner

Search our weather history database for the weather conditions in past years. The results will help you decide how hot, cold, wet, or windy it might be!

Date:

Astronomy

Sep. 11, 2014 Rise Set
Actual Time 7:04 AM EDT 7:36 PM EDT
Civil Twilight 6:39 AM EDT 8:01 PM EDT
Nautical Twilight 6:09 AM EDT 8:30 PM EDT
Astronomical Twilight 5:39 AM EDT 9:00 PM EDT
Moon 9:24 PM EDT (9/11) 9:50 AM EDT (9/11)
Length of Visible Light 13h 21m
Length of Day
12h 31m
Waning Gibbous, 91% of the Moon is Illuminated
Sep 11
Waning Gibbous
Sep 15
Last Quarter
Sep 24
New
Oct 1
First Quarter
Oct 8
Full

Hourly Weather History & Observations

Time (EDT) Temp. Heat Index Dew Point Humidity Pressure Visibility Wind Dir Wind Speed Gust Speed Precip Events Conditions
12:53 AM 73.0 °F - 69.1 °F 87% 30.05 in 10.0 mi Calm Calm - N/A   Overcast
1:53 AM 73.0 °F - 69.1 °F 87% 30.05 in 10.0 mi Calm Calm - N/A   Overcast
2:53 AM 73.0 °F - 69.1 °F 87% 30.05 in 10.0 mi Calm Calm - N/A   Mostly Cloudy
3:53 AM 72.0 °F - 69.1 °F 91% 30.05 in 8.0 mi Calm Calm - N/A   Clear
4:53 AM 71.1 °F - 68.0 °F 90% 30.05 in 8.0 mi Calm Calm - N/A   Scattered Clouds
5:53 AM 71.1 °F - 69.1 °F 93% 30.05 in 7.0 mi Calm Calm - N/A   Scattered Clouds
6:53 AM 71.1 °F - 68.0 °F 90% 30.06 in 7.0 mi Calm Calm - N/A   Clear
7:53 AM 72.0 °F - 69.1 °F 91% 30.08 in 6.0 mi Calm Calm - N/A   Clear
8:32 AM 73.9 °F - 70.0 °F 87% 30.08 in 7.0 mi Calm Calm - N/A   Partly Cloudy
8:53 AM 75.0 °F - 71.1 °F 87% 30.07 in 8.0 mi Variable 3.5 mph - N/A   Scattered Clouds
9:53 AM 79.0 °F - 72.0 °F 79% 30.07 in 10.0 mi Calm Calm - N/A   Clear
10:53 AM 84.0 °F 89.6 °F 72.0 °F 67% 30.06 in 10.0 mi West 10.4 mph - N/A   Partly Cloudy
11:53 AM 86.0 °F 92.2 °F 72.0 °F 63% 30.05 in 10.0 mi West 10.4 mph - N/A   Scattered Clouds
12:53 PM 89.1 °F 93.7 °F 69.1 °F 52% 30.03 in 10.0 mi West 10.4 mph - N/A   Partly Cloudy
1:53 PM 91.9 °F 96.9 °F 69.1 °F 47% 30.01 in 10.0 mi NW 5.8 mph - N/A   Partly Cloudy
2:53 PM 91.0 °F 95.6 °F 69.1 °F 48% 29.99 in 10.0 mi West 8.1 mph - N/A   Clear
3:53 PM 93.0 °F 97.9 °F 69.1 °F 45% 29.96 in 10.0 mi NW 5.8 mph - N/A   Clear
4:53 PM 93.0 °F 97.4 °F 68.0 °F 44% 29.96 in 10.0 mi NW 4.6 mph - N/A   Partly Cloudy
5:53 PM 89.1 °F 95.0 °F 71.1 °F 55% 29.96 in 10.0 mi Calm Calm - N/A   Scattered Clouds
6:53 PM 89.1 °F 95.0 °F 71.1 °F 55% 29.96 in 10.0 mi Calm Calm - N/A   Clear
7:53 PM 84.9 °F 92.1 °F 73.9 °F 69% 29.98 in 10.0 mi Calm Calm - N/A   Clear
8:53 PM 82.0 °F 87.9 °F 73.9 °F 76% 29.99 in 10.0 mi Calm Calm - N/A   Clear
9:53 PM 81.0 °F 86.2 °F 73.9 °F 79% 30.00 in 10.0 mi Calm Calm - N/A   Mostly Cloudy
10:53 PM 82.0 °F 87.4 °F 73.0 °F 74% 30.00 in 10.0 mi Calm Calm - N/A   Mostly Cloudy
11:53 PM 80.1 °F 83.6 °F 71.1 °F 74% 30.01 in 10.0 mi Calm Calm - N/A   Clear